TimeCST,TemperatureF,Dew PointF,Humidity,Sea Level PressureIn,VisibilityMPH,Wind Direction,Wind SpeedMPH,Gust SpeedMPH,PrecipitationIn,Events,Conditions,WindDirDegrees,DateUTC
12:10 AM,20.1,17.2,89,30.44,10.0,North,5.8,-,N/A,,Overcast,350,2010-12-26 06:10:00
12:30 AM,19.9,17.1,89,30.43,10.0,NNW,5.8,-,N/A,,Overcast,330,2010-12-26 06:30:00
12:50 AM,19.9,17.2,89,30.43,10.0,NNW,4.6,-,N/A,,Overcast,340,2010-12-26 06:50:00
1:10 AM,19.9,17.2,89,30.42,10.0,NNW,6.9,-,N/A,,Overcast,330,2010-12-26 07:10:00
1:30 AM,19.6,17.2,91,30.43,7.0,North,6.9,-,N/A,,Overcast,10,2010-12-26 07:30:00
1:50 AM,19.2,16.7,90,30.43,10.0,NNE,5.8,-,N/A,,Overcast,20,2010-12-26 07:50:00
2:10 AM,19.4,15.8,86,30.43,7.0,NNW,6.9,-,N/A,,Overcast,340,2010-12-26 08:10:00
2:30 AM,19.0,16.7,91,30.43,7.0,North,4.6,-,N/A,,Overcast,350,2010-12-26 08:30:00
2:50 AM,18.9,16.7,91,30.43,7.0,NNE,5.8,-,N/A,,Overcast,20,2010-12-26 08:50:00
3:10 AM,18.5,16.3,91,30.44,7.0,North,4.6,-,N/A,,Overcast,350,2010-12-26 09:10:00
3:30 AM,18.3,16.2,91,30.43,7.0,Calm,Calm,-,N/A,,Overcast,0,2010-12-26 09:30:00
3:50 AM,18.3,16.3,92,30.42,7.0,NNW,5.8,-,N/A,,Overcast,340,2010-12-26 09:50:00
4:10 AM,18.0,15.8,91,30.42,10.0,NNE,4.6,-,N/A,,Overcast,20,2010-12-26 10:10:00
4:30 AM,17.6,15.8,93,30.42,7.0,North,5.8,-,N/A,,Overcast,350,2010-12-26 10:30:00
4:50 AM,17.4,15.6,93,30.42,7.0,NNW,5.8,-,N/A,,Overcast,340,2010-12-26 10:50:00
5:10 AM,17.2,15.4,93,30.41,7.0,Calm,Calm,-,N/A,,Overcast,0,2010-12-26 11:10:00
5:30 AM,17.6,15.8,93,30.41,7.0,North,5.8,-,N/A,,Overcast,360,2010-12-26 11:30:00
5:50 AM,17.4,15.6,93,30.41,10.0,Calm,Calm,-,N/A,,Overcast,0,2010-12-26 11:50:00
6:10 AM,17.6,15.8,93,30.41,10.0,NE,4.6,-,N/A,,Overcast,50,2010-12-26 12:10:00
6:30 AM,16.7,15.3,94,30.41,10.0,East,3.5,-,N/A,,Overcast,80,2010-12-26 12:30:00
6:50 AM,16.5,14.9,93,30.42,10.0,NNE,3.5,-,N/A,,Overcast,30,2010-12-26 12:50:00
7:10 AM,15.8,14.0,93,30.42,10.0,NE,5.8,-,N/A,,Overcast,40,2010-12-26 13:10:00
7:30 AM,15.8,14.7,95,30.42,10.0,Calm,Calm,-,N/A,,Overcast,0,2010-12-26 13:30:00
7:50 AM,16.0,14.7,95,30.42,10.0,ENE,4.6,-,N/A,,Overcast,70,2010-12-26 13:50:00
8:10 AM,15.8,14.0,93,30.42,10.0,SE,5.8,-,N/A,,Overcast,140,2010-12-26 14:10:00
8:30 AM,15.8,14.5,95,30.42,7.0,SSE,3.5,-,N/A,,Overcast,150,2010-12-26 14:30:00
8:50 AM,15.8,14.7,95,30.42,5.0,Calm,Calm,-,N/A,,Overcast,0,2010-12-26 14:50:00
9:10 AM,16.0,14.9,95,30.42,5.0,ESE,3.5,-,N/A,,Overcast,120,2010-12-26 15:10:00
9:30 AM,16.3,15.3,96,30.42,5.0,East,3.5,-,N/A,,Overcast,80,2010-12-26 15:30:00
9:50 AM,16.2,15.1,95,30.42,5.0,SE,5.8,-,N/A,,Overcast,140,2010-12-26 15:50:00
10:30 AM,16.5,15.3,95,30.42,7.0,SE,6.9,-,N/A,,Overcast,130,2010-12-26 16:30:00
10:50 AM,16.7,15.4,95,30.42,7.0,South,5.8,-,N/A,,Overcast,170,2010-12-26 16:50:00
11:10 AM,17.2,15.8,94,30.42,7.0,East,3.5,-,N/A,,Overcast,100,2010-12-26 17:10:00
11:30 AM,17.4,16.0,94,30.41,7.0,SSE,5.8,-,N/A,,Overcast,150,2010-12-26 17:30:00
11:50 AM,17.6,15.8,93,30.40,10.0,SE,3.5,-,N/A,,Overcast,130,2010-12-26 17:50:00
12:10 PM,18.3,16.7,93,30.38,10.0,SSE,4.6,-,N/A,,Overcast,150,2010-12-26 18:10:00
12:30 PM,18.5,16.7,93,30.37,10.0,SSE,8.1,-,N/A,,Overcast,150,2010-12-26 18:30:00
12:50 PM,19.0,17.1,92,30.37,10.0,SSE,5.8,-,N/A,,Overcast,150,2010-12-26 18:50:00
1:10 PM,19.2,17.1,91,30.35,10.0,South,5.8,-,N/A,,Overcast,170,2010-12-26 19:10:00
1:30 PM,19.4,16.9,90,30.35,10.0,South,6.9,-,N/A,,Overcast,180,2010-12-26 19:30:00
1:50 PM,19.8,17.6,91,30.34,10.0,South,5.8,-,N/A,,Overcast,170,2010-12-26 19:50:00
2:10 PM,20.3,17.8,90,30.34,10.0,SSE,5.8,-,N/A,,Overcast,150,2010-12-26 20:10:00
2:30 PM,20.3,17.6,89,30.34,10.0,SSE,6.9,-,N/A,,Overcast,150,2010-12-26 20:30:00
2:50 PM,20.3,16.9,87,30.34,10.0,SE,4.6,-,N/A,,Overcast,140,2010-12-26 20:50:00
3:10 PM,20.3,17.6,89,30.33,10.0,SSE,6.9,-,N/A,,Overcast,160,2010-12-26 21:10:00
3:30 PM,21.2,17.6,86,30.33,10.0,South,6.9,-,N/A,,Overcast,170,2010-12-26 21:30:00
3:50 PM,20.8,17.4,87,30.33,10.0,South,9.2,-,N/A,,Overcast,180,2010-12-26 21:50:00
4:10 PM,20.8,17.6,87,30.32,10.0,South,6.9,-,N/A,,Overcast,180,2010-12-26 22:10:00
4:30 PM,20.3,16.7,86,30.31,10.0,South,4.6,-,N/A,,Scattered Clouds,190,2010-12-26 22:30:00
4:50 PM,20.1,16.7,87,30.30,10.0,South,5.8,-,N/A,,Clear,180,2010-12-26 22:50:00
5:10 PM,18.7,15.8,89,30.29,10.0,South,5.8,-,N/A,,Clear,190,2010-12-26 23:10:00
5:30 PM,17.6,14.7,88,30.29,10.0,South,3.5,-,N/A,,Clear,180,2010-12-26 23:30:00
5:50 PM,18.5,15.8,89,30.28,10.0,Calm,Calm,-,N/A,,Clear,0,2010-12-26 23:50:00
6:10 PM,18.3,15.6,89,30.28,10.0,Calm,Calm,-,N/A,,Clear,0,2010-12-27 00:10:00
6:30 PM,17.6,15.4,91,30.28,10.0,Calm,Calm,-,N/A,,Clear,0,2010-12-27 00:30:00
6:50 PM,16.2,14.2,92,30.27,10.0,East,3.5,-,N/A,,Clear,100,2010-12-27 00:50:00
7:10 PM,15.8,14.0,93,30.27,10.0,ESE,3.5,-,N/A,,Clear,120,2010-12-27 01:10:00
7:30 PM,15.4,13.8,93,30.27,7.0,East,4.6,-,N/A,,Clear,90,2010-12-27 01:30:00
7:50 PM,14.5,12.9,93,30.27,7.0,East,4.6,-,N/A,,Clear,90,2010-12-27 01:50:00
8:10 PM,14.5,12.9,93,30.27,7.0,East,4.6,-,N/A,,Clear,100,2010-12-27 02:10:00
8:30 PM,14.0,12.2,93,30.27,7.0,East,4.6,-,N/A,,Clear,100,2010-12-27 02:30:00
8:50 PM,14.9,13.3,93,30.26,7.0,ESE,4.6,-,N/A,,Clear,110,2010-12-27 02:50:00
9:10 PM,14.4,12.4,92,30.25,7.0,ESE,6.9,-,N/A,,Clear,110,2010-12-27 03:10:00
9:30 PM,14.0,12.2,93,30.25,10.0,ESE,5.8,-,N/A,,Clear,110,2010-12-27 03:30:00
9:50 PM,14.5,12.7,93,30.25,10.0,ESE,5.8,-,N/A,,Clear,120,2010-12-27 03:50:00
10:10 PM,14.7,12.7,92,30.25,10.0,ESE,4.6,-,N/A,,Clear,120,2010-12-27 04:10:00
10:30 PM,14.0,12.2,93,30.25,10.0,SE,3.5,-,N/A,,Clear,130,2010-12-27 04:30:00
10:50 PM,14.0,12.2,93,30.25,10.0,SE,3.5,-,N/A,,Clear,140,2010-12-27 04:50:00
11:10 PM,14.5,12.6,92,30.25,10.0,SSE,4.6,-,N/A,,Clear,150,2010-12-27 05:10:00
11:30 PM,14.2,12.2,92,30.26,10.0,SSE,4.6,-,N/A,,Clear,150,2010-12-27 05:30:00
11:50 PM,13.8,11.8,92,30.25,10.0,SSE,4.6,-,N/A,,Clear,150,2010-12-27 05:50:00